Time,TemperatureF,DewpointF,PressureIn,WindDirection,WindDirectionDegrees,WindSpeedMPH,WindSpeedGustMPH,Humidity,HourlyPrecipIn,Conditions,Clouds,dailyrainin,SoftwareType,DateUTC
2013-06-08 00:03:00,66.7,66.1,29.63,North,359,1.0,7.0,98,0.00,,,0.00,WUHU216DAVISVP2,2013-06-08 04:03:00,
2013-06-08 00:08:00,66.7,66.1,29.63,SW,227,1.0,7.0,98,0.00,,,0.00,WUHU216DAVISVP2,2013-06-08 04:08:00,
2013-06-08 00:13:00,66.6,66.0,29.63,WSW,247,0.0,7.0,98,0.00,,,0.00,WUHU216DAVISVP2,2013-06-08 04:13:00,
2013-06-08 00:18:00,66.6,66.0,29.64,WSW,255,2.0,5.0,98,0.00,,,0.00,WUHU216DAVISVP2,2013-06-08 04:18:00,
2013-06-08 00:23:00,66.6,66.0,29.64,North,4,3.0,7.0,98,0.00,,,0.00,WUHU216DAVISVP2,2013-06-08 04:23:00,
2013-06-08 00:28:00,66.6,66.0,29.64,North,359,2.0,7.0,98,0.00,,,0.00,WUHU216DAVISVP2,2013-06-08 04:28:00,
2013-06-08 00:33:00,66.6,66.0,29.64,North,359,1.0,7.0,98,0.00,,,0.00,WUHU216DAVISVP2,2013-06-08 04:33:00,
2013-06-08 00:38:00,66.6,66.0,29.64,North,359,1.0,7.0,98,0.00,,,0.00,WUHU216DAVISVP2,2013-06-08 04:38:00,
2013-06-08 00:43:00,66.6,66.0,29.65,SW,228,0.0,6.0,98,0.00,,,0.00,WUHU216DAVISVP2,2013-06-08 04:43:00,
2013-06-08 00:48:00,66.6,66.0,29.64,NNW,331,1.0,6.0,98,0.00,,,0.00,WUHU216DAVISVP2,2013-06-08 04:48:00,
2013-06-08 00:53:00,66.6,66.0,29.64,North,359,1.0,7.0,98,0.00,,,0.00,WUHU216DAVISVP2,2013-06-08 04:53:00,
2013-06-08 00:58:00,66.6,66.0,29.65,North,359,1.0,7.0,98,0.00,,,0.00,WUHU216DAVISVP2,2013-06-08 04:58:00,
2013-06-08 01:03:00,66.5,65.9,29.65,North,359,1.0,7.0,98,0.00,,,0.00,WUHU216DAVISVP2,2013-06-08 05:03:00,
2013-06-08 01:08:00,66.4,65.5,29.66,ENE,75,1.0,7.0,97,0.00,,,0.00,WUHU216DAVISVP2,2013-06-08 05:08:00,
2013-06-08 01:13:00,66.4,65.5,29.66,NNW,346,4.0,5.0,97,0.00,,,0.00,WUHU216DAVISVP2,2013-06-08 05:13:00,
2013-06-08 01:18:00,66.4,65.5,29.66,WNW,288,0.0,5.0,97,0.00,,,0.00,WUHU216DAVISVP2,2013-06-08 05:18:00,
2013-06-08 01:23:00,66.3,65.4,29.66,SSE,156,0.0,5.0,97,0.00,,,0.00,WUHU216DAVISVP2,2013-06-08 05:23:00,
2013-06-08 01:28:00,66.2,65.3,29.66,SSE,154,0.0,5.0,97,0.00,,,0.00,WUHU216DAVISVP2,2013-06-08 05:28:00,
2013-06-08 01:34:00,66.2,65.3,29.66,North,359,0.0,5.0,97,0.00,,,0.00,WUHU216DAVISVP2,2013-06-08 05:34:00,
2013-06-08 01:39:00,66.1,65.2,29.67,SW,216,0.0,5.0,97,0.00,,,0.00,WUHU216DAVISVP2,2013-06-08 05:39:00,
2013-06-08 01:44:00,66.0,65.1,29.66,NW,320,1.0,5.0,97,0.00,,,0.00,WUHU216DAVISVP2,2013-06-08 05:44:00,
2013-06-08 01:49:00,65.9,65.0,29.67,SW,234,0.0,5.0,97,0.00,,,0.00,WUHU216DAVISVP2,2013-06-08 05:49:00,
2013-06-08 01:54:00,65.8,65.2,29.67,North,359,0.0,3.0,98,0.00,,,0.00,WUHU216DAVISVP2,2013-06-08 05:54:00,
2013-06-08 01:59:00,65.8,64.9,29.68,SSW,208,2.0,3.0,97,0.00,,,0.00,WUHU216DAVISVP2,2013-06-08 05:59:00,
2013-06-08 02:04:00,65.7,64.8,29.69,SSW,195,0.0,3.0,97,0.00,,,0.00,WUHU216DAVISVP2,2013-06-08 06:04:00,
2013-06-08 02:09:00,65.8,65.2,29.69,SW,231,0.0,3.0,98,0.00,,,0.00,WUHU216DAVISVP2,2013-06-08 06:09:00,
2013-06-08 02:14:00,65.8,65.2,29.69,North,11,2.0,3.0,98,0.00,,,0.00,WUHU216DAVISVP2,2013-06-08 06:14:00,
2013-06-08 02:19:00,65.7,65.1,29.69,West,270,0.0,3.0,98,0.00,,,0.00,WUHU216DAVISVP2,2013-06-08 06:19:00,
2013-06-08 02:24:00,65.7,65.1,29.69,West,267,0.0,3.0,98,0.00,,,0.00,WUHU216DAVISVP2,2013-06-08 06:24:00,
2013-06-08 02:29:00,65.7,65.1,29.69,SSW,205,1.0,3.0,98,0.00,,,0.00,WUHU216DAVISVP2,2013-06-08 06:29:00,
2013-06-08 02:34:00,65.6,65.0,29.70,SSW,211,0.0,3.0,98,0.00,,,0.00,WUHU216DAVISVP2,2013-06-08 06:34:00,
2013-06-08 02:39:00,65.6,65.0,29.69,SSW,210,0.0,3.0,98,0.00,,,0.00,WUHU216DAVISVP2,2013-06-08 06:39:00,
2013-06-08 02:44:00,65.5,64.9,29.70,SSW,208,1.0,3.0,98,0.00,,,0.00,WUHU216DAVISVP2,2013-06-08 06:44:00,
2013-06-08 02:49:00,65.4,64.8,29.70,SSW,209,0.0,2.0,98,0.00,,,0.00,WUHU216DAVISVP2,2013-06-08 06:49:00,
2013-06-08 02:54:00,65.4,64.8,29.70,SSW,210,0.0,2.0,98,0.00,,,0.00,WUHU216DAVISVP2,2013-06-08 06:54:00,
2013-06-08 02:59:00,65.3,64.7,29.70,SSW,208,0.0,2.0,98,0.00,,,0.00,WUHU216DAVISVP2,2013-06-08 06:59:00,
2013-06-08 03:04:00,65.3,64.7,29.71,SSW,210,0.0,2.0,98,0.00,,,0.00,WUHU216DAVISVP2,2013-06-08 07:04:00,
2013-06-08 03:09:00,65.3,64.7,29.71,SSW,209,0.0,2.0,98,0.00,,,0.00,WUHU216DAVISVP2,2013-06-08 07:09:00,
2013-06-08 03:14:00,65.2,64.6,29.71,SSW,209,0.0,1.0,98,0.00,,,0.00,WUHU216DAVISVP2,2013-06-08 07:14:00,
2013-06-08 03:19:00,65.2,64.6,29.72,SSW,210,0.0,1.0,98,0.00,,,0.00,WUHU216DAVISVP2,2013-06-08 07:19:00,
2013-06-08 03:24:00,65.1,64.5,29.72,SSW,208,0.0,1.0,98,0.00,,,0.00,WUHU216DAVISVP2,2013-06-08 07:24:00,
2013-06-08 03:29:00,65.1,64.5,29.73,SSW,209,0.0,1.0,98,0.00,,,0.00,WUHU216DAVISVP2,2013-06-08 07:29:00,
2013-06-08 03:34:00,65.1,64.5,29.73,SSW,208,0.0,1.0,98,0.00,,,0.00,WUHU216DAVISVP2,2013-06-08 07:34:00,
2013-06-08 03:39:00,65.0,64.4,29.73,North,359,0.0,1.0,98,0.00,,,0.00,WUHU216DAVISVP2,2013-06-08 07:39:00,
2013-06-08 03:44:00,65.0,64.4,29.72,North,359,0.0,1.0,98,0.00,,,0.00,WUHU216DAVISVP2,2013-06-08 07:44:00,
2013-06-08 03:49:00,64.9,64.3,29.73,SSW,210,0.0,1.0,98,0.00,,,0.00,WUHU216DAVISVP2,2013-06-08 07:49:00,
2013-06-08 03:54:00,64.9,64.3,29.73,SSW,211,0.0,1.0,98,0.00,,,0.00,WUHU216DAVISVP2,2013-06-08 07:54:00,
2013-06-08 03:59:00,64.9,64.3,29.74,North,359,0.0,0.0,98,0.00,,,0.00,WUHU216DAVISVP2,2013-06-08 07:59:00,
2013-06-08 04:04:00,64.9,64.3,29.74,SSW,208,0.0,0.0,98,0.00,,,0.00,WUHU216DAVISVP2,2013-06-08 08:04:00,
2013-06-08 04:09:00,64.8,64.2,29.74,SSW,211,0.0,0.0,98,0.00,,,0.00,WUHU216DAVISVP2,2013-06-08 08:09:00,
2013-06-08 04:14:00,64.8,64.2,29.75,SSW,211,0.0,1.0,98,0.00,,,0.00,WUHU216DAVISVP2,2013-06-08 08:14:00,
2013-06-08 04:19:00,64.8,64.2,29.75,SSW,208,0.0,1.0,98,0.00,,,0.00,WUHU216DAVISVP2,2013-06-08 08:19:00,
2013-06-08 04:24:00,64.8,64.2,29.75,SSW,208,0.0,1.0,98,0.00,,,0.00,WUHU216DAVISVP2,2013-06-08 08:24:00,
2013-06-08 04:29:00,64.8,64.2,29.75,SSW,208,0.0,1.0,98,0.00,,,0.00,WUHU216DAVISVP2,2013-06-08 08:29:00,
2013-06-08 04:34:00,64.9,64.3,29.75,SSW,209,0.0,1.0,98,0.00,,,0.00,WUHU216DAVISVP2,2013-06-08 08:34:00,
2013-06-08 04:39:00,64.9,64.3,29.76,SSW,211,0.0,1.0,98,0.00,,,0.00,WUHU216DAVISVP2,2013-06-08 08:39:00,
2013-06-08 04:44:00,64.8,64.2,29.76,SSW,210,0.0,1.0,98,0.00,,,0.00,WUHU216DAVISVP2,2013-06-08 08:44:00,
2013-06-08 04:49:00,64.8,64.2,29.76,SSW,211,0.0,1.0,98,0.00,,,0.00,WUHU216DAVISVP2,2013-06-08 08:49:00,
2013-06-08 04:54:00,64.9,64.3,29.76,SSW,209,0.0,1.0,98,0.00,,,0.00,WUHU216DAVISVP2,2013-06-08 08:54:00,
2013-06-08 04:59:00,64.8,64.2,29.77,North,359,0.0,1.0,98,0.00,,,0.00,WUHU216DAVISVP2,2013-06-08 08:59:00,
2013-06-08 05:04:00,64.8,64.2,29.77,North,359,0.0,1.0,98,0.00,,,0.00,WUHU216DAVISVP2,2013-06-08 09:04:00,
2013-06-08 05:09:00,64.8,64.5,29.77,North,359,0.0,1.0,99,0.00,,,0.00,WUHU216DAVISVP2,2013-06-08 09:09:00,
2013-06-08 05:14:00,64.7,64.4,29.78,SSW,208,0.0,1.0,99,0.00,,,0.00,WUHU216DAVISVP2,2013-06-08 09:14:00,
2013-06-08 05:19:00,64.7,64.1,29.78,SSW,209,0.0,0.0,98,0.00,,,0.00,WUHU216DAVISVP2,2013-06-08 09:19:00,
2013-06-08 05:24:00,64.7,64.4,29.79,SSW,208,0.0,0.0,99,0.01,,,0.01,WUHU216DAVISVP2,2013-06-08 09:24:00,
2013-06-08 05:29:00,64.8,64.5,29.79,North,359,0.0,0.0,99,0.01,,,0.01,WUHU216DAVISVP2,2013-06-08 09:29:00,
2013-06-08 05:34:00,64.8,64.5,29.80,North,359,0.0,0.0,99,0.01,,,0.01,WUHU216DAVISVP2,2013-06-08 09:34:00,
2013-06-08 05:39:00,64.8,64.5,29.80,SSW,211,0.0,1.0,99,0.01,,,0.01,WUHU216DAVISVP2,2013-06-08 09:39:00,
2013-06-08 05:44:00,64.8,64.5,29.80,SSW,209,0.0,1.0,99,0.01,,,0.01,WUHU216DAVISVP2,2013-06-08 09:44:00,
2013-06-08 05:49:00,64.9,64.6,29.80,SSW,210,0.0,1.0,99,0.01,,,0.01,WUHU216DAVISVP2,2013-06-08 09:49:00,
2013-06-08 05:54:00,64.9,64.6,29.81,SSW,211,0.0,1.0,99,0.01,,,0.01,WUHU216DAVISVP2,2013-06-08 09:54:00,
2013-06-08 05:59:00,65.0,64.7,29.81,North,359,0.0,1.0,99,0.01,,,0.01,WUHU216DAVISVP2,2013-06-08 09:59:00,
2013-06-08 06:04:00,65.0,64.7,29.81,SSW,210,1.0,1.0,99,0.01,,,0.01,WUHU216DAVISVP2,2013-06-08 10:04:00,
2013-06-08 06:09:00,65.1,64.8,29.82,SSW,209,0.0,2.0,99,0.01,,,0.01,WUHU216DAVISVP2,2013-06-08 10:09:00,
2013-06-08 06:14:00,65.2,64.9,29.82,SSW,209,0.0,2.0,99,0.01,,,0.01,WUHU216DAVISVP2,2013-06-08 10:14:00,
2013-06-08 06:19:00,65.2,64.6,29.81,SSW,211,0.0,2.0,98,0.01,,,0.01,WUHU216DAVISVP2,2013-06-08 10:19:00,
2013-06-08 06:24:00,65.2,64.6,29.82,North,359,0.0,2.0,98,0.00,,,0.01,WUHU216DAVISVP2,2013-06-08 10:24:00,
2013-06-08 06:29:00,65.3,64.7,29.82,SSW,208,0.0,2.0,98,0.00,,,0.01,WUHU216DAVISVP2,2013-06-08 10:29:00,
2013-06-08 06:34:00,65.3,64.7,29.82,SSW,210,0.0,1.0,98,0.00,,,0.01,WUHU216DAVISVP2,2013-06-08 10:34:00,
2013-06-08 06:39:00,65.3,64.7,29.82,SSW,208,0.0,1.0,98,0.00,,,0.01,WUHU216DAVISVP2,2013-06-08 10:39:00,
2013-06-08 06:44:00,65.3,64.7,29.82,SSW,208,0.0,1.0,98,0.00,,,0.01,WUHU216DAVISVP2,2013-06-08 10:44:00,
2013-06-08 06:49:00,65.3,64.7,29.82,SSW,208,0.0,1.0,98,0.00,,,0.01,WUHU216DAVISVP2,2013-06-08 10:49:00,
2013-06-08 06:54:00,65.3,64.7,29.82,SSW,211,0.0,2.0,98,0.00,,,0.01,WUHU216DAVISVP2,2013-06-08 10:54:00,
2013-06-08 06:59:00,65.3,64.7,29.83,SSW,211,0.0,2.0,98,0.00,,,0.01,WUHU216DAVISVP2,2013-06-08 10:59:00,
2013-06-08 07:04:00,65.4,64.8,29.83,SSW,204,0.0,2.0,98,0.00,,,0.01,WUHU216DAVISVP2,2013-06-08 11:04:00,
2013-06-08 07:09:00,65.5,64.9,29.83,North,359,0.0,2.0,98,0.00,,,0.01,WUHU216DAVISVP2,2013-06-08 11:09:00,
2013-06-08 07:14:00,65.6,65.0,29.83,North,359,0.0,1.0,98,0.00,,,0.01,WUHU216DAVISVP2,2013-06-08 11:14:00,
2013-06-08 07:19:00,65.6,65.0,29.83,SSW,208,0.0,3.0,98,0.00,,,0.01,WUHU216DAVISVP2,2013-06-08 11:19:00,
2013-06-08 07:24:00,65.6,65.0,29.83,North,359,0.0,3.0,98,0.00,,,0.01,WUHU216DAVISVP2,2013-06-08 11:24:00,
2013-06-08 07:29:00,65.7,65.1,29.83,North,359,0.0,3.0,98,0.00,,,0.01,WUHU216DAVISVP2,2013-06-08 11:29:00,
2013-06-08 07:34:00,65.7,65.1,29.83,North,359,0.0,3.0,98,0.00,,,0.01,WUHU216DAVISVP2,2013-06-08 11:34:00,
2013-06-08 07:39:00,65.8,65.2,29.83,SSW,211,0.0,2.0,98,0.00,,,0.01,WUHU216DAVISVP2,2013-06-08 11:39:00,
2013-06-08 07:44:00,65.8,65.2,29.84,North,359,1.0,1.0,98,0.00,,,0.01,WUHU216DAVISVP2,2013-06-08 11:44:00,
2013-06-08 07:49:00,65.9,65.3,29.84,SSW,210,0.0,1.0,98,0.00,,,0.01,WUHU216DAVISVP2,2013-06-08 11:49:00,
2013-06-08 07:54:00,66.1,65.5,29.83,SSW,208,0.0,1.0,98,0.00,,,0.01,WUHU216DAVISVP2,2013-06-08 11:54:00,
2013-06-08 07:59:00,66.2,65.6,29.84,SSW,211,0.0,1.0,98,0.00,,,0.01,WUHU216DAVISVP2,2013-06-08 11:59:00,
2013-06-08 08:04:00,66.3,65.4,29.84,SSW,209,0.0,1.0,97,0.00,,,0.01,WUHU216DAVISVP2,2013-06-08 12:04:00,
2013-06-08 08:09:00,66.4,65.5,29.84,SSW,211,0.0,1.0,97,0.00,,,0.01,WUHU216DAVISVP2,2013-06-08 12:09:00,
2013-06-08 08:14:00,66.5,65.6,29.83,SSW,209,0.0,1.0,97,0.00,,,0.01,WUHU216DAVISVP2,2013-06-08 12:14:00,
2013-06-08 08:19:00,66.5,65.6,29.83,North,359,0.0,1.0,97,0.00,,,0.01,WUHU216DAVISVP2,2013-06-08 12:19:00,
2013-06-08 08:24:00,66.5,65.3,29.84,North,359,0.0,1.0,96,0.00,,,0.01,WUHU216DAVISVP2,2013-06-08 12:24:00,
2013-06-08 08:29:00,66.6,65.4,29.84,SSW,208,0.0,1.0,96,0.00,,,0.01,WUHU216DAVISVP2,2013-06-08 12:29:00,
2013-06-08 08:34:00,66.6,65.1,29.84,North,359,0.0,1.0,95,0.00,,,0.01,WUHU216DAVISVP2,2013-06-08 12:34:00,
2013-06-08 08:39:00,66.8,65.6,29.84,SSW,208,0.0,1.0,96,0.00,,,0.01,WUHU216DAVISVP2,2013-06-08 12:39:00,
2013-06-08 08:44:00,67.0,65.8,29.84,SSW,211,0.0,1.0,96,0.00,,,0.01,WUHU216DAVISVP2,2013-06-08 12:44:00,
2013-06-08 08:49:00,67.2,66.0,29.85,SW,215,0.0,2.0,96,0.00,,,0.01,WUHU216DAVISVP2,2013-06-08 12:49:00,
2013-06-08 08:54:00,67.5,66.0,29.85,SW,222,0.0,2.0,95,0.00,,,0.01,WUHU216DAVISVP2,2013-06-08 12:54:00,
2013-06-08 08:59:00,67.6,65.8,29.85,WNW,300,1.0,2.0,94,0.00,,,0.01,WUHU216DAVISVP2,2013-06-08 12:59:00,
2013-06-08 09:04:00,67.8,65.7,29.86,North,359,0.0,2.0,93,0.00,,,0.01,WUHU216DAVISVP2,2013-06-08 13:04:00,
2013-06-08 09:09:00,68.0,66.2,29.86,North,359,0.0,3.0,94,0.00,,,0.01,WUHU216DAVISVP2,2013-06-08 13:09:00,
2013-06-08 09:14:00,68.0,65.9,29.86,North,359,0.0,3.0,93,0.00,,,0.01,WUHU216DAVISVP2,2013-06-08 13:14:00,
2013-06-08 09:19:00,68.2,66.1,29.87,West,275,0.0,3.0,93,0.00,,,0.01,WUHU216DAVISVP2,2013-06-08 13:19:00,
2013-06-08 09:24:00,68.2,65.8,29.87,West,275,0.0,3.0,92,0.00,,,0.01,WUHU216DAVISVP2,2013-06-08 13:24:00,
2013-06-08 09:29:00,68.2,65.5,29.88,West,270,0.0,3.0,91,0.00,,,0.01,WUHU216DAVISVP2,2013-06-08 13:29:00,
2013-06-08 09:34:00,68.3,65.9,29.88,North,359,0.0,2.0,92,0.00,,,0.01,WUHU216DAVISVP2,2013-06-08 13:34:00,
2013-06-08 09:39:00,68.3,65.9,29.88,WNW,299,0.0,2.0,92,0.00,,,0.01,WUHU216DAVISVP2,2013-06-08 13:39:00,
2013-06-08 09:44:00,68.4,65.7,29.88,North,359,0.0,2.0,91,0.00,,,0.01,WUHU216DAVISVP2,2013-06-08 13:44:00,
2013-06-08 09:49:00,68.3,65.5,29.88,NNE,30,0.0,2.0,91,0.00,,,0.01,WUHU216DAVISVP2,2013-06-08 13:49:00,
2013-06-08 09:54:00,68.4,65.6,29.88,North,359,0.0,1.0,91,0.00,,,0.01,WUHU216DAVISVP2,2013-06-08 13:54:00,
2013-06-08 09:59:00,68.5,65.4,29.88,NW,305,0.0,2.0,90,0.00,,,0.01,WUHU216DAVISVP2,2013-06-08 13:59:00,
2013-06-08 10:04:00,68.8,66.4,29.88,NW,305,0.0,2.0,92,0.00,,,0.01,WUHU216DAVISVP2,2013-06-08 14:04:00,
2013-06-08 10:09:00,69.0,66.2,29.88,NW,304,1.0,2.0,91,0.00,,,0.01,WUHU216DAVISVP2,2013-06-08 14:09:00,
2013-06-08 10:14:00,69.3,65.9,29.88,NW,305,0.0,2.0,89,0.00,,,0.01,WUHU216DAVISVP2,2013-06-08 14:14:00,
2013-06-08 10:19:00,69.6,66.2,29.89,North,4,0.0,2.0,89,0.00,,,0.01,WUHU216DAVISVP2,2013-06-08 14:19:00,
2013-06-08 10:24:00,69.9,66.5,29.89,North,4,0.0,3.0,89,0.00,,,0.01,WUHU216DAVISVP2,2013-06-08 14:24:00,
2013-06-08 10:29:00,70.4,66.3,29.89,North,4,0.0,3.0,87,0.00,,,0.01,WUHU216DAVISVP2,2013-06-08 14:29:00,
2013-06-08 10:34:00,70.8,65.8,29.89,WNW,297,3.0,5.0,84,0.00,,,0.01,WUHU216DAVISVP2,2013-06-08 14:34:00,
2013-06-08 10:39:00,70.9,65.5,29.89,NNW,342,0.0,6.0,83,0.00,,,0.01,WUHU216DAVISVP2,2013-06-08 14:39:00,
2013-06-08 10:44:00,71.3,65.5,29.90,WNW,296,1.0,6.0,82,0.00,,,0.01,WUHU216DAVISVP2,2013-06-08 14:44:00,
2013-06-08 10:49:00,71.5,65.7,29.89,NNW,343,1.0,6.0,82,0.00,,,0.01,WUHU216DAVISVP2,2013-06-08 14:49:00,
2013-06-08 10:54:00,72.2,65.7,29.90,NNW,334,0.0,5.0,80,0.00,,,0.01,WUHU216DAVISVP2,2013-06-08 14:54:00,
2013-06-08 10:59:00,72.8,66.3,29.90,West,266,1.0,4.0,80,0.00,,,0.01,WUHU216DAVISVP2,2013-06-08 14:59:00,
2013-06-08 11:04:00,73.1,65.6,29.90,North,10,0.0,4.0,77,0.00,,,0.01,WUHU216DAVISVP2,2013-06-08 15:04:00,
2013-06-08 11:09:00,73.3,66.1,29.91,NNE,14,0.0,4.0,78,0.00,,,0.01,WUHU216DAVISVP2,2013-06-08 15:09:00,
2013-06-08 11:14:00,73.3,65.7,29.90,NNE,14,0.0,4.0,77,0.00,,,0.01,WUHU216DAVISVP2,2013-06-08 15:14:00,
2013-06-08 11:19:00,73.1,65.9,29.91,WNW,297,0.0,3.0,78,0.00,,,0.01,WUHU216DAVISVP2,2013-06-08 15:19:00,
2013-06-08 11:24:00,73.0,65.1,29.91,NW,314,0.0,3.0,76,0.00,,,0.01,WUHU216DAVISVP2,2013-06-08 15:24:00,
2013-06-08 11:29:00,73.1,65.2,29.92,South,185,0.0,3.0,76,0.00,,,0.01,WUHU216DAVISVP2,2013-06-08 15:29:00,
2013-06-08 11:34:00,73.2,65.6,29.91,South,185,0.0,3.0,77,0.00,,,0.01,WUHU216DAVISVP2,2013-06-08 15:34:00,
2013-06-08 11:39:00,73.2,64.9,29.91,NW,321,1.0,3.0,75,0.00,,,0.01,WUHU216DAVISVP2,2013-06-08 15:39:00,
2013-06-08 11:44:00,73.1,65.2,29.91,NW,323,0.0,2.0,76,0.00,,,0.01,WUHU216DAVISVP2,2013-06-08 15:44:00,
2013-06-08 11:49:00,73.2,65.3,29.91,NW,325,0.0,2.0,76,0.00,,,0.01,WUHU216DAVISVP2,2013-06-08 15:49:00,
2013-06-08 11:54:00,73.0,64.8,29.92,NNW,340,0.0,2.0,75,0.00,,,0.01,WUHU216DAVISVP2,2013-06-08 15:54:00,
2013-06-08 11:59:00,72.8,64.8,29.92,NNW,340,0.0,2.0,76,0.00,,,0.01,WUHU216DAVISVP2,2013-06-08 15:59:00,
2013-06-08 12:04:00,73.0,65.7,29.93,NNW,339,0.0,2.0,78,0.00,,,0.01,WUHU216DAVISVP2,2013-06-08 16:04:00,
2013-06-08 12:09:00,73.0,65.5,29.92,NNW,340,0.0,2.0,77,0.00,,,0.01,WUHU216DAVISVP2,2013-06-08 16:09:00,
2013-06-08 12:14:00,72.6,65.1,29.89,ENE,60,0.0,2.0,77,0.00,,,0.01,WUHU216DAVISVP2,2013-06-08 16:14:00,
2013-06-08 12:19:00,72.4,65.6,29.90,ENE,60,0.0,2.0,79,0.00,,,0.01,WUHU216DAVISVP2,2013-06-08 16:19:00,
2013-06-08 12:24:00,72.2,65.8,29.90,ENE,60,0.0,2.0,80,0.00,,,0.01,WUHU216DAVISVP2,2013-06-08 16:24:00,
2013-06-08 12:29:00,71.9,66.8,29.91,NNE,15,0.0,2.0,84,0.00,,,0.01,WUHU216DAVISVP2,2013-06-08 16:29:00,
2013-06-08 12:34:00,71.8,67.0,29.90,NNE,15,0.0,1.0,85,0.00,,,0.01,WUHU216DAVISVP2,2013-06-08 16:34:00,
2013-06-08 12:39:00,71.8,66.0,29.90,NNE,15,1.0,1.0,82,0.00,,,0.01,WUHU216DAVISVP2,2013-06-08 16:39:00,
2013-06-08 12:44:00,71.8,66.4,29.90,NNE,15,0.0,1.0,83,0.00,,,0.01,WUHU216DAVISVP2,2013-06-08 16:44:00,
2013-06-08 12:49:00,71.8,64.6,29.89,NNW,340,0.0,1.0,78,0.00,,,0.01,WUHU216DAVISVP2,2013-06-08 16:49:00,
2013-06-08 12:54:00,71.9,65.8,29.89,NNW,340,0.0,1.0,81,0.00,,,0.01,WUHU216DAVISVP2,2013-06-08 16:54:00,
2013-06-08 12:59:00,72.1,64.9,29.89,WNW,299,0.0,1.0,78,0.00,,,0.01,WUHU216DAVISVP2,2013-06-08 16:59:00,
2013-06-08 13:04:00,72.4,64.2,29.89,WNW,295,0.0,1.0,75,0.00,,,0.01,WUHU216DAVISVP2,2013-06-08 17:04:00,
2013-06-08 13:09:00,73.0,64.4,29.90,WNW,295,0.0,1.0,74,0.00,,,0.01,WUHU216DAVISVP2,2013-06-08 17:09:00,
2013-06-08 13:14:00,73.7,65.3,29.91,WNW,295,0.0,1.0,75,0.00,,,0.01,WUHU216DAVISVP2,2013-06-08 17:14:00,
2013-06-08 13:19:00,74.4,63.6,29.90,NNE,14,2.0,2.0,69,0.00,,,0.01,WUHU216DAVISVP2,2013-06-08 17:19:00,
2013-06-08 13:24:00,74.5,64.7,29.90,NNW,343,0.0,4.0,71,0.00,,,0.01,WUHU216DAVISVP2,2013-06-08 17:24:00,
2013-06-08 13:29:00,74.9,65.4,29.90,SW,223,1.0,4.0,72,0.00,,,0.01,WUHU216DAVISVP2,2013-06-08 17:29:00,
2013-06-08 13:34:00,75.0,64.1,29.89,NW,319,0.0,4.0,69,0.00,,,0.01,WUHU216DAVISVP2,2013-06-08 17:34:00,
2013-06-08 13:39:00,74.9,64.0,29.90,NNW,327,3.0,4.0,69,0.00,,,0.01,WUHU216DAVISVP2,2013-06-08 17:39:00,
2013-06-08 13:44:00,75.0,64.5,29.90,NNW,346,3.0,4.0,70,0.00,,,0.01,WUHU216DAVISVP2,2013-06-08 17:44:00,
2013-06-08 13:49:00,74.7,64.7,29.89,WNW,289,3.0,4.0,71,0.00,,,0.01,WUHU216DAVISVP2,2013-06-08 17:49:00,
2013-06-08 13:54:00,74.6,65.4,29.89,NNW,330,3.0,4.0,73,0.00,,,0.01,WUHU216DAVISVP2,2013-06-08 17:54:00,
2013-06-08 13:59:00,74.2,64.2,29.89,WNW,296,1.0,6.0,71,0.00,,,0.01,WUHU216DAVISVP2,2013-06-08 17:59:00,
2013-06-08 14:04:00,74.4,65.7,29.90,NW,319,1.0,6.0,74,0.00,,,0.01,WUHU216DAVISVP2,2013-06-08 18:04:00,
2013-06-08 14:09:00,74.7,65.5,29.90,NNW,331,1.0,6.0,73,0.00,,,0.01,WUHU216DAVISVP2,2013-06-08 18:09:00,
2013-06-08 14:14:00,75.1,65.6,29.90,West,277,1.0,6.0,72,0.00,,,0.01,WUHU216DAVISVP2,2013-06-08 18:14:00,
2013-06-08 14:19:00,75.8,65.1,29.90,WNW,298,0.0,6.0,69,0.00,,,0.01,WUHU216DAVISVP2,2013-06-08 18:19:00,
2013-06-08 14:24:00,76.7,66.0,29.90,NNE,25,0.0,6.0,69,0.00,,,0.01,WUHU216DAVISVP2,2013-06-08 18:24:00,
2013-06-08 14:29:00,77.2,65.0,29.90,South,170,1.0,6.0,66,0.00,,,0.01,WUHU216DAVISVP2,2013-06-08 18:29:00,
2013-06-08 14:34:00,77.1,66.1,29.90,North,4,3.0,6.0,69,0.00,,,0.01,WUHU216DAVISVP2,2013-06-08 18:34:00,
2013-06-08 14:39:00,76.8,64.8,29.90,NW,316,1.0,6.0,66,0.00,,,0.01,WUHU216DAVISVP2,2013-06-08 18:39:00,
2013-06-08 14:44:00,76.7,64.3,29.90,NW,326,3.0,6.0,65,0.00,,,0.01,WUHU216DAVISVP2,2013-06-08 18:44:00,
2013-06-08 14:49:00,76.7,64.3,29.91,NW,317,5.0,6.0,65,0.00,,,0.01,WUHU216DAVISVP2,2013-06-08 18:49:00,
2013-06-08 14:54:00,77.1,64.9,29.90,North,8,3.0,6.0,66,0.00,,,0.01,WUHU216DAVISVP2,2013-06-08 18:54:00,
2013-06-08 14:59:00,77.4,64.5,29.91,West,274,0.0,6.0,64,0.00,,,0.01,WUHU216DAVISVP2,2013-06-08 18:59:00,
2013-06-08 15:04:00,77.5,64.6,29.91,ENE,77,0.0,6.0,64,0.00,,,0.01,WUHU216DAVISVP2,2013-06-08 19:04:00,
2013-06-08 15:09:00,77.9,64.5,29.91,West,268,0.0,5.0,63,0.00,,,0.01,WUHU216DAVISVP2,2013-06-08 19:09:00,
2013-06-08 15:14:00,78.7,64.8,29.91,North,4,2.0,5.0,62,0.00,,,0.01,WUHU216DAVISVP2,2013-06-08 19:14:00,
2013-06-08 15:19:00,79.3,65.4,29.91,NW,324,6.0,7.0,62,0.00,,,0.01,WUHU216DAVISVP2,2013-06-08 19:19:00,
2013-06-08 15:24:00,78.3,64.2,29.91,NW,324,1.0,8.0,62,0.00,,,0.01,WUHU216DAVISVP2,2013-06-08 19:24:00,
2013-06-08 15:29:00,78.5,64.9,29.91,WSW,240,2.0,8.0,63,0.00,,,0.01,WUHU216DAVISVP2,2013-06-08 19:29:00,
2013-06-08 15:34:00,78.1,64.5,29.91,North,354,1.0,8.0,63,0.00,,,0.01,WUHU216DAVISVP2,2013-06-08 19:34:00,
2013-06-08 15:39:00,78.2,64.8,29.91,NNW,341,1.0,8.0,63,0.00,,,0.01,WUHU216DAVISVP2,2013-06-08 19:39:00,
2013-06-08 15:44:00,78.0,63.7,29.91,NNW,341,1.0,7.0,61,0.00,,,0.01,WUHU216DAVISVP2,2013-06-08 19:44:00,
2013-06-08 15:49:00,77.8,64.2,29.91,NNW,339,2.0,7.0,63,0.00,,,0.01,WUHU216DAVISVP2,2013-06-08 19:49:00,
2013-06-08 15:54:00,77.9,64.1,29.91,WSW,244,1.0,7.0,62,0.00,,,0.01,WUHU216DAVISVP2,2013-06-08 19:54:00,
2013-06-08 15:59:00,78.0,63.7,29.91,North,359,0.0,7.0,61,0.00,,,0.01,WUHU216DAVISVP2,2013-06-08 19:59:00,
2013-06-08 16:04:00,78.4,64.5,29.91,NNW,342,0.0,4.0,62,0.00,,,0.01,WUHU216DAVISVP2,2013-06-08 20:04:00,
2013-06-08 16:09:00,78.2,63.6,29.91,NNE,12,3.0,6.0,61,0.00,,,0.01,WUHU216DAVISVP2,2013-06-08 20:09:00,
2013-06-08 16:14:00,78.1,63.6,29.90,NNW,332,4.0,6.0,61,0.00,,,0.01,WUHU216DAVISVP2,2013-06-08 20:14:00,
2013-06-08 16:19:00,77.9,63.8,29.91,NW,304,2.0,6.0,62,0.00,,,0.01,WUHU216DAVISVP2,2013-06-08 20:19:00,
2013-06-08 16:24:00,77.8,64.2,29.91,North,10,2.0,6.0,63,0.00,,,0.01,WUHU216DAVISVP2,2013-06-08 20:24:00,
2013-06-08 16:29:00,78.2,64.6,29.91,NW,304,2.0,6.0,63,0.00,,,0.01,WUHU216DAVISVP2,2013-06-08 20:29:00,
2013-06-08 16:34:00,78.4,64.5,29.90,NNW,337,3.0,5.0,62,0.00,,,0.01,WUHU216DAVISVP2,2013-06-08 20:34:00,
2013-06-08 16:39:00,78.3,64.9,29.91,NNE,29,1.0,4.0,63,0.00,,,0.01,WUHU216DAVISVP2,2013-06-08 20:39:00,
2013-06-08 16:44:00,78.2,63.9,29.91,WNW,299,2.0,4.0,61,0.00,,,0.01,WUHU216DAVISVP2,2013-06-08 20:44:00,
2013-06-08 16:49:00,78.1,63.3,29.91,NW,305,0.0,4.0,60,0.00,,,0.01,WUHU216DAVISVP2,2013-06-08 20:49:00,
2013-06-08 16:54:00,78.1,65.2,29.91,NW,322,0.0,4.0,64,0.00,,,0.01,WUHU216DAVISVP2,2013-06-08 20:54:00,
2013-06-08 17:00:00,78.3,64.0,29.91,NNW,343,0.0,4.0,61,0.00,,,0.01,WUHU216DAVISVP2,2013-06-08 21:00:00,
2013-06-08 17:05:00,78.3,63.5,29.91,North,354,0.0,4.0,60,0.00,,,0.01,WUHU216DAVISVP2,2013-06-08 21:05:00,
2013-06-08 17:10:00,78.4,64.1,29.91,North,359,2.0,4.0,61,0.00,,,0.01,WUHU216DAVISVP2,2013-06-08 21:10:00,
2013-06-08 17:15:00,78.4,64.1,29.91,NNW,334,2.0,4.0,61,0.00,,,0.01,WUHU216DAVISVP2,2013-06-08 21:15:00,
2013-06-08 17:20:00,78.5,65.5,29.92,NNW,335,1.0,4.0,64,0.00,,,0.01,WUHU216DAVISVP2,2013-06-08 21:20:00,
2013-06-08 17:25:00,78.6,65.6,29.92,ENE,70,1.0,3.0,64,0.00,,,0.01,WUHU216DAVISVP2,2013-06-08 21:25:00,
2013-06-08 17:30:00,78.3,66.7,29.92,North,10,0.0,3.0,67,0.00,,,0.01,WUHU216DAVISVP2,2013-06-08 21:30:00,
2013-06-08 17:35:00,78.2,67.6,29.92,NE,54,0.0,3.0,70,0.00,,,0.01,WUHU216DAVISVP2,2013-06-08 21:35:00,
2013-06-08 17:40:00,78.1,68.9,29.92,ENE,73,0.0,3.0,73,0.00,,,0.01,WUHU216DAVISVP2,2013-06-08 21:40:00,
2013-06-08 17:45:00,77.6,67.7,29.92,East,88,0.0,3.0,71,0.00,,,0.01,WUHU216DAVISVP2,2013-06-08 21:45:00,
2013-06-08 17:50:00,77.0,67.1,29.93,SSE,152,2.0,3.0,71,0.00,,,0.01,WUHU216DAVISVP2,2013-06-08 21:50:00,
2013-06-08 17:55:00,76.3,67.2,29.93,SSE,152,1.0,3.0,73,0.00,,,0.01,WUHU216DAVISVP2,2013-06-08 21:55:00,
2013-06-08 18:00:00,76.0,67.1,29.93,SSE,153,2.0,3.0,74,0.00,,,0.01,WUHU216DAVISVP2,2013-06-08 22:00:00,
2013-06-08 18:05:00,75.9,67.6,29.93,South,172,2.0,3.0,75,0.00,,,0.01,WUHU216DAVISVP2,2013-06-08 22:05:00,
2013-06-08 18:10:00,75.8,66.9,29.93,SSE,157,2.0,3.0,74,0.00,,,0.01,WUHU216DAVISVP2,2013-06-08 22:10:00,
2013-06-08 18:15:00,75.6,67.3,29.93,SSE,156,1.0,3.0,75,0.00,,,0.01,WUHU216DAVISVP2,2013-06-08 22:15:00,
2013-06-08 18:20:00,75.5,67.4,29.93,South,185,2.0,3.0,76,0.00,,,0.01,WUHU216DAVISVP2,2013-06-08 22:20:00,
2013-06-08 18:25:00,75.3,67.4,29.94,South,169,2.0,4.0,76,0.00,,,0.01,WUHU216DAVISVP2,2013-06-08 22:25:00,
2013-06-08 18:30:00,75.1,67.0,29.94,South,170,0.0,4.0,76,0.00,,,0.01,WUHU216DAVISVP2,2013-06-08 22:30:00,
2013-06-08 18:35:00,75.2,67.9,29.94,South,170,0.0,4.0,78,0.01,,,0.02,WUHU216DAVISVP2,2013-06-08 22:35:00,
2013-06-08 18:40:00,75.2,68.0,29.95,South,170,1.0,4.0,78,0.01,,,0.02,WUHU216DAVISVP2,2013-06-08 22:40:00,
2013-06-08 18:45:00,75.0,67.8,29.94,South,170,1.0,4.0,78,0.01,,,0.02,WUHU216DAVISVP2,2013-06-08 22:45:00,
2013-06-08 18:50:00,74.8,67.2,29.95,South,170,1.0,4.0,77,0.01,,,0.02,WUHU216DAVISVP2,2013-06-08 22:50:00,
2013-06-08 18:55:00,74.6,67.4,29.95,South,171,0.0,4.0,78,0.01,,,0.02,WUHU216DAVISVP2,2013-06-08 22:55:00,
2013-06-08 19:00:00,74.5,67.3,29.95,South,171,0.0,4.0,78,0.01,,,0.02,WUHU216DAVISVP2,2013-06-08 23:00:00,
2013-06-08 19:05:00,74.4,67.6,29.95,South,177,2.0,3.0,79,0.01,,,0.02,WUHU216DAVISVP2,2013-06-08 23:05:00,
2013-06-08 19:10:00,74.3,67.5,29.95,South,177,0.0,3.0,79,0.01,,,0.02,WUHU216DAVISVP2,2013-06-08 23:10:00,
2013-06-08 19:15:00,74.2,67.7,29.96,South,177,2.0,3.0,80,0.01,,,0.02,WUHU216DAVISVP2,2013-06-08 23:15:00,
2013-06-08 19:20:00,74.1,67.6,29.96,South,177,0.0,3.0,80,0.01,,,0.02,WUHU216DAVISVP2,2013-06-08 23:20:00,
2013-06-08 19:25:00,74.0,67.9,29.96,South,177,0.0,2.0,81,0.01,,,0.02,WUHU216DAVISVP2,2013-06-08 23:25:00,
2013-06-08 19:30:00,73.8,67.2,29.96,South,175,0.0,2.0,80,0.01,,,0.02,WUHU216DAVISVP2,2013-06-08 23:30:00,
2013-06-08 19:35:00,73.6,67.0,29.97,South,175,0.0,3.0,80,0.00,,,0.02,WUHU216DAVISVP2,2013-06-08 23:35:00,
2013-06-08 19:40:00,73.4,67.6,29.97,South,175,0.0,3.0,82,0.00,,,0.02,WUHU216DAVISVP2,2013-06-08 23:40:00,
2013-06-08 19:45:00,73.2,67.4,29.97,South,175,0.0,3.0,82,0.00,,,0.02,WUHU216DAVISVP2,2013-06-08 23:45:00,
2013-06-08 19:50:00,73.0,67.2,29.97,South,175,1.0,3.0,82,0.00,,,0.02,WUHU216DAVISVP2,2013-06-08 23:50:00,
2013-06-08 19:55:00,72.8,67.4,29.97,South,175,1.0,2.0,83,0.00,,,0.02,WUHU216DAVISVP2,2013-06-08 23:55:00,
2013-06-08 20:00:00,72.6,67.1,29.97,South,175,0.0,1.0,83,0.00,,,0.02,WUHU216DAVISVP2,2013-06-09 00:00:00,
2013-06-08 20:05:00,72.4,67.3,29.97,South,175,0.0,1.0,84,0.00,,,0.02,WUHU216DAVISVP2,2013-06-09 00:05:00,
2013-06-08 20:10:00,72.2,67.1,29.97,South,175,0.0,1.0,84,0.00,,,0.02,WUHU216DAVISVP2,2013-06-09 00:10:00,
2013-06-08 20:15:00,72.1,67.0,29.98,South,175,0.0,1.0,84,0.00,,,0.02,WUHU216DAVISVP2,2013-06-09 00:15:00,
2013-06-08 20:20:00,72.0,67.3,29.98,South,175,0.0,1.0,85,0.00,,,0.02,WUHU216DAVISVP2,2013-06-09 00:20:00,
2013-06-08 20:25:00,71.8,67.0,29.98,South,175,0.0,1.0,85,0.00,,,0.02,WUHU216DAVISVP2,2013-06-09 00:25:00,
2013-06-08 20:30:00,71.6,67.2,29.98,South,175,0.0,1.0,86,0.00,,,0.02,WUHU216DAVISVP2,2013-06-09 00:30:00,
2013-06-08 20:35:00,71.4,67.0,29.98,South,175,0.0,1.0,86,0.00,,,0.02,WUHU216DAVISVP2,2013-06-09 00:35:00,
2013-06-08 20:40:00,71.2,67.1,29.98,South,175,0.0,0.0,87,0.00,,,0.02,WUHU216DAVISVP2,2013-06-09 00:40:00,
2013-06-08 20:45:00,71.0,66.9,29.98,South,175,0.0,0.0,87,0.00,,,0.02,WUHU216DAVISVP2,2013-06-09 00:45:00,
2013-06-08 20:50:00,70.9,66.8,29.99,South,175,0.0,0.0,87,0.00,,,0.02,WUHU216DAVISVP2,2013-06-09 00:50:00,
2013-06-08 20:55:00,70.7,67.0,29.99,South,175,0.0,0.0,88,0.00,,,0.02,WUHU216DAVISVP2,2013-06-09 00:55:00,
2013-06-08 21:00:00,70.4,67.0,29.99,South,175,0.0,0.0,89,0.00,,,0.02,WUHU216DAVISVP2,2013-06-09 01:00:00,
2013-06-08 21:05:00,70.3,66.9,29.99,South,175,0.0,0.0,89,0.00,,,0.02,WUHU216DAVISVP2,2013-06-09 01:05:00,
2013-06-08 21:10:00,70.1,66.7,30.00,South,175,0.0,0.0,89,0.00,,,0.02,WUHU216DAVISVP2,2013-06-09 01:10:00,
2013-06-08 21:15:00,69.9,66.8,30.00,South,175,0.0,0.0,90,0.00,,,0.02,WUHU216DAVISVP2,2013-06-09 01:15:00,
2013-06-08 21:20:00,69.8,66.7,30.00,South,175,0.0,0.0,90,0.00,,,0.02,WUHU216DAVISVP2,2013-06-09 01:20:00,
2013-06-08 21:25:00,69.7,66.9,30.00,South,175,0.0,0.0,91,0.00,,,0.02,WUHU216DAVISVP2,2013-06-09 01:25:00,
2013-06-08 21:30:00,69.6,66.8,30.00,South,175,0.0,0.0,91,0.00,,,0.02,WUHU216DAVISVP2,2013-06-09 01:30:00,
2013-06-08 21:35:00,69.5,67.0,30.00,South,175,0.0,0.0,92,0.00,,,0.02,WUHU216DAVISVP2,2013-06-09 01:35:00,
2013-06-08 21:40:00,69.4,67.0,30.01,South,175,0.0,0.0,92,0.00,,,0.02,WUHU216DAVISVP2,2013-06-09 01:40:00,
2013-06-08 21:45:00,69.3,66.8,30.01,South,175,0.0,0.0,92,0.00,,,0.02,WUHU216DAVISVP2,2013-06-09 01:45:00,
2013-06-08 21:50:00,69.2,66.7,30.01,South,175,0.0,0.0,92,0.00,,,0.02,WUHU216DAVISVP2,2013-06-09 01:50:00,
2013-06-08 21:55:00,69.1,66.6,30.01,South,175,0.0,0.0,92,0.00,,,0.02,WUHU216DAVISVP2,2013-06-09 01:55:00,
2013-06-08 22:00:00,69.0,66.9,30.01,South,175,0.0,0.0,93,0.00,,,0.02,WUHU216DAVISVP2,2013-06-09 02:00:00,
2013-06-08 22:05:00,68.9,66.8,30.01,South,175,0.0,0.0,93,0.00,,,0.02,WUHU216DAVISVP2,2013-06-09 02:05:00,
2013-06-08 22:10:00,68.9,66.8,30.02,South,175,0.0,0.0,93,0.00,,,0.02,WUHU216DAVISVP2,2013-06-09 02:10:00,
2013-06-08 22:15:00,68.8,67.0,30.02,South,175,0.0,0.0,94,0.00,,,0.02,WUHU216DAVISVP2,2013-06-09 02:15:00,
2013-06-08 22:20:00,68.8,67.0,30.02,South,175,0.0,0.0,94,0.00,,,0.02,WUHU216DAVISVP2,2013-06-09 02:20:00,
2013-06-08 22:25:00,68.8,67.0,30.02,South,175,0.0,0.0,94,0.00,,,0.02,WUHU216DAVISVP2,2013-06-09 02:25:00,
2013-06-08 22:30:00,68.8,67.0,30.03,South,175,0.0,0.0,94,0.00,,,0.02,WUHU216DAVISVP2,2013-06-09 02:30:00,
2013-06-08 22:35:00,68.7,67.2,30.03,South,175,0.0,0.0,95,0.00,,,0.02,WUHU216DAVISVP2,2013-06-09 02:35:00,
2013-06-08 22:40:00,68.7,66.9,30.03,South,175,0.0,0.0,94,0.00,,,0.02,WUHU216DAVISVP2,2013-06-09 02:40:00,
2013-06-08 22:45:00,68.5,67.0,30.03,South,175,0.0,0.0,95,0.00,,,0.02,WUHU216DAVISVP2,2013-06-09 02:45:00,
2013-06-08 22:50:00,68.5,67.0,30.03,South,175,0.0,0.0,95,0.00,,,0.02,WUHU216DAVISVP2,2013-06-09 02:50:00,
2013-06-08 22:55:00,68.4,66.9,30.04,South,175,0.0,0.0,95,0.00,,,0.02,WUHU216DAVISVP2,2013-06-09 02:55:00,
2013-06-08 23:00:00,68.3,66.8,30.04,South,175,0.0,0.0,95,0.00,,,0.02,WUHU216DAVISVP2,2013-06-09 03:00:00,
2013-06-08 23:05:00,68.3,66.8,30.04,South,175,0.0,0.0,95,0.00,,,0.02,WUHU216DAVISVP2,2013-06-09 03:05:00,
2013-06-08 23:10:00,68.1,66.6,30.04,South,175,0.0,0.0,95,0.00,,,0.02,WUHU216DAVISVP2,2013-06-09 03:10:00,
2013-06-08 23:15:00,68.1,66.9,30.04,South,175,0.0,0.0,96,0.00,,,0.02,WUHU216DAVISVP2,2013-06-09 03:15:00,
2013-06-08 23:20:00,68.0,66.8,30.04,South,175,0.0,0.0,96,0.00,,,0.02,WUHU216DAVISVP2,2013-06-09 03:20:00,
2013-06-08 23:25:00,68.1,66.9,30.04,South,175,0.0,0.0,96,0.00,,,0.02,WUHU216DAVISVP2,2013-06-09 03:25:00,
2013-06-08 23:30:00,68.0,66.8,30.04,South,175,0.0,0.0,96,0.00,,,0.02,WUHU216DAVISVP2,2013-06-09 03:30:00,
2013-06-08 23:35:00,67.8,66.6,30.04,South,175,0.0,0.0,96,0.00,,,0.02,WUHU216DAVISVP2,2013-06-09 03:35:00,
2013-06-08 23:40:00,67.7,66.5,30.04,South,175,0.0,0.0,96,0.00,,,0.02,WUHU216DAVISVP2,2013-06-09 03:40:00,
2013-06-08 23:45:00,67.6,66.4,30.04,South,175,0.0,0.0,96,0.00,,,0.02,WUHU216DAVISVP2,2013-06-09 03:45:00,
2013-06-08 23:50:00,67.4,66.2,30.04,South,175,0.0,0.0,96,0.00,,,0.02,WUHU216DAVISVP2,2013-06-09 03:50:00,
2013-06-08 23:55:00,67.3,66.1,30.04,South,175,0.0,0.0,96,0.00,,,0.02,WUHU216DAVISVP2,2013-06-09 03:55:00,